Tracking 19576 objects as of 17-Feb-2019
HD Live streaming from Space Station
objects crossing your sky now

COSMOS 1823 DEB

Track COSMOS 1823 DEB now!
10-day predictions


NORAD ID: 29356
Int'l Code: 1987-020DX
Perigee: 1,465.3 km
Apogee: 1,519.7 km
Inclination: 73.7 °
Period: 115.7 minutes
Semi major axis: 7863 km
RCS: 0.0302 m2 (small)
Launch date: February 20, 1987
Source: Commonwealth of Independent States (former USSR) (CIS)
Launch site: PLESETSK MISSILE AND SPACE COMPLEX (PKMTR)

Note: This is SATELLITE DEBRIS
aabbcc
Your satellite tracking list
Your tracking list is empty




NASA's NSSDC Master Catalog

Two Line Element Set (TLE):
1 29356U 87020DX  19046.35585917 -.00000035  00000-0 -12587-3 0  9991
2 29356  73.6530  47.8619 0034582 359.7568  64.4971 12.45031197752469
Source of the keplerian elements: AFSPC